| time (UTC) | temp C | wind direction | speed KPH | gust KPH | rain 1hr cm | rain 24hr cm | rain mn cm | humidity % | barometer mb |
| 20260504050646 | 21 | 214 | 9.7 | 11.3 | 0.00 | 0.00 | 0.00 | 45 | 1008.9 |
| 20260504050143 | 21 | 276 | 11.3 | 20.9 | 0.00 | 0.00 | 0.00 | 45 | 1009.0 |
| 20260504045641 | 21 | 185 | 11.3 | 20.9 | 0.00 | 0.00 | 0.00 | 45 | 1008.9 |
| 20260504045140 | 21 | 217 | 6.4 | 9.7 | 0.00 | 0.00 | 0.00 | 44 | 1008.7 |
| 20260504044638 | 21 | 214 | 6.4 | 9.7 | 0.00 | 0.00 | 0.00 | 44 | 1008.9 |
| 20260504044135 | 21 | 158 | 8.0 | 11.3 | 0.00 | 0.00 | 0.00 | 44 | 1008.7 |
| 20260504043632 | 21 | 86 | 8.0 | 12.9 | 0.00 | 0.00 | 0.00 | 43 | 1008.7 |
| 20260504043129 | 21 | 96 | 8.0 | 11.3 | 0.00 | 0.00 | 0.00 | 43 | 1008.8 |
| 20260504042626 | 21 | 186 | 6.4 | 11.3 | 0.00 | 0.00 | 0.00 | 42 | 1008.7 |
| 20260504042123 | 21 | 172 | 6.4 | 9.7 | 0.00 | 0.00 | 0.00 | 42 | 1008.9 |
| 20260504041619 | 21 | 201 | 8.0 | 16.1 | 0.00 | 0.00 | 0.00 | 42 | 1009.1 |
| 20260504041115 | 21 | 157 | 6.4 | 12.9 | 0.00 | 0.00 | 0.00 | 41 | 1009.0 |
| 20260504040613 | 21 | 162 | 4.8 | 8.0 | 0.00 | 0.00 | 0.00 | 41 | 1009.0 |
| 20260504040109 | 21 | 197 | 4.8 | 8.0 | 0.00 | 0.00 | 0.00 | 41 | 1009.2 |
| 20260504035606 | 21 | 83 | 4.8 | 8.0 | 0.00 | 0.00 | 0.00 | 41 | 1009.0 |
| 20260504035102 | 21 | 203 | 3.2 | 3.2 | 0.00 | 0.00 | 0.00 | 41 | 1008.9 |
| 20260504034600 | 20 | 202 | 3.2 | 3.2 | 0.00 | 0.00 | 0.00 | 41 | 1009.1 |
| 20260504034057 | 20 | 197 | 4.8 | 4.8 | 0.00 | 0.00 | 0.00 | 41 | 1009.0 |
| 20260504033555 | 21 | 217 | 4.8 | 8.0 | 0.00 | 0.00 | 0.00 | 41 | 1009.0 |
| 20260504033052 | 21 | 151 | 3.2 | 3.2 | 0.00 | 0.00 | 0.00 | 40 | 1009.1 |
| 20260504032549 | 20 | 162 | 3.2 | 4.8 | 0.00 | 0.00 | 0.00 | 40 | 1009.0 |
| 20260504032046 | 20 | 132 | 4.8 | 4.8 | 0.00 | 0.00 | 0.00 | 41 | 1009.1 |
| 20260504031543 | 20 | 107 | 1.6 | 1.6 | 0.00 | 0.00 | 0.00 | 40 | 1009.0 |
| 20260504031039 | 20 | 117 | 1.6 | 3.2 | 0.00 | 0.00 | 0.00 | 40 | 1009.2 |
| 20260504030536 | 20 | 126 | 0.0 | 0.0 | 0.00 | 0.00 | 0.00 | 41 | 1009.2 |
| 20260504030032 | 21 | 158 | 1.6 | 1.6 | 0.00 | 0.00 | 0.00 | 40 | 1009.0 |
| 20260504025530 | 21 | 199 | 0.0 | 1.6 | 0.00 | 0.00 | 0.00 | 39 | 1008.9 |
| 20260504025026 | 21 | 112 | 0.0 | 0.0 | 0.00 | 0.00 | 0.00 | 39 | 1008.9 |
| 20260504024523 | 21 | 164 | 3.2 | 4.8 | 0.00 | 0.00 | 0.00 | 38 | 1008.9 |
| 20260504024020 | 21 | 119 | 0.0 | 0.0 | 0.00 | 0.00 | 0.00 | 38 | 1009.1 |
| 20260504023517 | 22 | 105 | 0.0 | 1.6 | 0.00 | 0.00 | 0.00 | 38 | 1009.0 |
| 20260504023013 | 22 | 181 | 3.2 | 4.8 | 0.00 | 0.00 | 0.00 | 37 | 1008.9 |
| 20260504022509 | 22 | 177 | 3.2 | 4.8 | 0.00 | 0.00 | 0.00 | 36 | 1009.0 |
| 20260504022006 | 22 | 157 | 1.6 | 3.2 | 0.00 | 0.00 | 0.00 | 37 | 1009.1 |
| 20260504021503 | 22 | 133 | 0.0 | 1.6 | 0.00 | 0.00 | 0.00 | 37 | 1008.9 |
| 20260504021000 | 22 | 130 | 0.0 | 0.0 | 0.00 | 0.00 | 0.00 | 37 | 1008.9 |
| 20260504020456 | 22 | 232 | 0.0 | 3.2 | 0.00 | 0.00 | 0.00 | 38 | 1008.9 |
| 20260504015953 | 22 | 130 | 0.0 | 0.0 | 0.00 | 0.00 | 0.00 | 37 | 1008.9 |
| 20260504015449 | 22 | 141 | 0.0 | 0.0 | 0.00 | 0.00 | 0.00 | 37 | 1009.1 |
| 20260504014945 | 22 | 133 | 0.0 | 0.0 | 0.00 | 0.00 | 0.00 | 37 | 1009.0 |
| 20260504014441 | 22 | 130 | 0.0 | 0.0 | 0.00 | 0.00 | 0.00 | 37 | 1009.0 |
| 20260504013938 | 22 | 137 | 0.0 | 0.0 | 0.00 | 0.00 | 0.00 | 37 | 1008.9 |
| 20260504013437 | 22 | 209 | 1.6 | 3.2 | 0.00 | 0.00 | 0.00 | 36 | 1008.8 |
| 20260504012933 | 23 | 133 | 0.0 | 0.0 | 0.00 | 0.00 | 0.00 | 36 | 1008.9 |
| 20260504012431 | 23 | 162 | 0.0 | 1.6 | 0.00 | 0.00 | 0.00 | 35 | 1009.0 |
| 20260504011928 | 23 | 146 | 0.0 | 1.6 | 0.00 | 0.00 | 0.00 | 35 | 1009.0 |
| 20260504011425 | 24 | 191 | 1.6 | 3.2 | 0.00 | 0.00 | 0.00 | 34 | 1008.9 |
| 20260504010920 | 24 | 141 | 1.6 | 3.2 | 0.00 | 0.00 | 0.00 | 33 | 1009.1 |
| 20260504010417 | 25 | 339 | 0.0 | 0.0 | 0.00 | 0.00 | 0.00 | 33 | 1008.9 |
| 20260504005913 | 25 | 148 | 0.0 | 1.6 | 0.00 | 0.00 | 0.00 | 32 | 1009.0 |
| 20260504005410 | 25 | 138 | 1.6 | 1.6 | 0.00 | 0.00 | 0.00 | 31 | 1009.1 |
| 20260504004908 | 25 | 161 | 4.8 | 8.0 | 0.00 | 0.00 | 0.00 | 30 | 1009.0 |
| 20260504004405 | 26 | 135 | 4.8 | 4.8 | 0.00 | 0.00 | 0.00 | 29 | 1009.2 |
| 20260504003902 | 26 | 163 | 1.6 | 3.2 | 0.00 | 0.00 | 0.00 | 29 | 1009.1 |
| 20260504003358 | 26 | 153 | 1.6 | 1.6 | 0.00 | 0.00 | 0.00 | 28 | 1009.2 |
| 20260504002855 | 26 | 0 | 1.6 | 3.2 | 0.00 | 0.00 | 0.00 | 28 | 1009.3 |
| 20260504002352 | 27 | 221 | 4.8 | 8.0 | 0.00 | 0.00 | 0.00 | 27 | 1009.3 |
| 20260504001849 | 27 | 157 | 4.8 | 4.8 | 0.00 | 0.00 | 0.00 | 27 | 1009.5 |
| 20260504001347 | 27 | 179 | 8.0 | 14.5 | 0.00 | 0.00 | 0.00 | 27 | 1009.6 |
| 20260504000843 | 27 | 139 | 1.6 | 3.2 | 0.00 | 0.00 | 0.00 | 27 | 1009.9 |
| 20260504000340 | 27 | 185 | 6.4 | 8.0 | 0.00 | 0.00 | 0.00 | 26 | 1009.7 |
| 20260503235838 | 27 | 197 | 4.8 | 4.8 | 0.00 | 0.00 | 0.00 | 26 | 1009.8 |
| 20260503235335 | 27 | 101 | 4.8 | 8.0 | 0.00 | 0.00 | 0.00 | 26 | 1009.8 |
| 20260503234833 | 27 | 199 | 8.0 | 9.7 | 0.00 | 0.00 | 0.00 | 26 | 1009.9 |
| 20260503234330 | 28 | 183 | 4.8 | 9.7 | 0.00 | 0.00 | 0.00 | 25 | 1009.8 |
| 20260503233828 | 28 | 167 | 6.4 | 11.3 | 0.00 | 0.00 | 0.00 | 25 | 1009.7 |
| 20260503233323 | 28 | 113 | 6.4 | 9.7 | 0.00 | 0.00 | 0.00 | 25 | 1009.7 |
| 20260503232820 | 28 | 174 | 8.0 | 11.3 | 0.00 | 0.00 | 0.00 | 24 | 1010.0 |
| 20260503232318 | 28 | 171 | 9.7 | 11.3 | 0.00 | 0.00 | 0.00 | 24 | 1010.0 |
| 20260503231816 | 28 | 270 | 8.0 | 9.7 | 0.00 | 0.00 | 0.00 | 24 | 1010.1 |
| 20260503231312 | 28 | 235 | 8.0 | 11.3 | 0.00 | 0.00 | 0.00 | 23 | 1009.8 |
| 20260503230808 | 28 | 114 | 4.8 | 8.0 | 0.00 | 0.00 | 0.00 | 23 | 1009.9 |
| 20260503230306 | 30 | 168 | 6.4 | 8.0 | 0.00 | 0.00 | 0.00 | 24 | 1010.1 |
| 20260503225803 | 29 | 180 | 11.3 | 14.5 | 0.00 | 0.00 | 0.00 | 23 | 1010.0 |
| 20260503225258 | 30 | 172 | 4.8 | 8.0 | 0.00 | 0.00 | 0.00 | 24 | 1010.1 |
| 20260503224755 | 30 | 196 | 11.3 | 14.5 | 0.00 | 0.00 | 0.00 | 23 | 1010.1 |
| 20260503224253 | 30 | 193 | 9.7 | 12.9 | 0.00 | 0.00 | 0.00 | 23 | 1010.0 |
| 20260503223750 | 30 | 253 | 8.0 | 11.3 | 0.00 | 0.00 | 0.00 | 23 | 1010.1 |
| 20260503223248 | 30 | 161 | 4.8 | 8.0 | 0.00 | 0.00 | 0.00 | 23 | 1010.2 |
| 20260503222743 | 30 | 172 | 6.4 | 9.7 | 0.00 | 0.00 | 0.00 | 22 | 1010.3 |
| 20260503222242 | 30 | 223 | 4.8 | 9.7 | 0.00 | 0.00 | 0.00 | 22 | 1010.4 |
| 20260503221740 | 30 | 191 | 8.0 | 11.3 | 0.00 | 0.00 | 0.00 | 21 | 1010.3 |
| 20260503221237 | 30 | 129 | 6.4 | 9.7 | 0.00 | 0.00 | 0.00 | 20 | 1010.5 |
| 20260503220734 | 30 | 225 | 3.2 | 4.8 | 0.00 | 0.00 | 0.00 | 22 | 1010.4 |
| 20260503220231 | 30 | 195 | 6.4 | 16.1 | 0.00 | 0.00 | 0.00 | 21 | 1010.2 |
| 20260503215727 | 30 | 175 | 4.8 | 8.0 | 0.00 | 0.00 | 0.00 | 21 | 1010.5 |
| 20260503215224 | 30 | 285 | 4.8 | 11.3 | 0.00 | 0.00 | 0.00 | 20 | 1010.4 |
| 20260503214723 | 30 | 149 | 4.8 | 4.8 | 0.00 | 0.00 | 0.00 | 21 | 1010.7 |
| 20260503214219 | 30 | 97 | 6.4 | 9.7 | 0.00 | 0.00 | 0.00 | 20 | 1010.7 |
| 20260503213717 | 30 | 218 | 3.2 | 4.8 | 0.00 | 0.00 | 0.00 | 22 | 1010.6 |
| 20260503213214 | 31 | 208 | 4.8 | 8.0 | 0.00 | 0.00 | 0.00 | 22 | 1010.7 |
| 20260503212711 | 31 | 210 | 4.8 | 8.0 | 0.00 | 0.00 | 0.00 | 22 | 1010.9 |
| 20260503212209 | 30 | 207 | 4.8 | 8.0 | 0.00 | 0.00 | 0.00 | 21 | 1010.9 |
| 20260503211706 | 31 | 215 | 4.8 | 4.8 | 0.00 | 0.00 | 0.00 | 20 | 1011.0 |
| 20260503211202 | 31 | 155 | 8.0 | 11.3 | 0.00 | 0.00 | 0.00 | 20 | 1011.3 |
| 20260503210658 | 31 | 159 | 12.9 | 25.7 | 0.00 | 0.00 | 0.00 | 20 | 1011.4 |
| 20260503210155 | 30 | 259 | 3.2 | 4.8 | 0.00 | 0.00 | 0.00 | 21 | 1011.3 |
| 20260503205650 | 31 | 213 | 4.8 | 8.0 | 0.00 | 0.00 | 0.00 | 19 | 1011.3 |
| 20260503205146 | 31 | 185 | 4.8 | 8.0 | 0.00 | 0.00 | 0.00 | 21 | 1011.3 |
| 20260503204643 | 31 | 218 | 9.7 | 17.7 | 0.00 | 0.00 | 0.00 | 19 | 1011.6 |
| 20260503204141 | 31 | 202 | 6.4 | 11.3 | 0.00 | 0.00 | 0.00 | 19 | 1011.7 |
| 20260503203638 | 31 | 129 | 3.2 | 4.8 | 0.00 | 0.00 | 0.00 | 20 | 1011.8 |
| 20260503203136 | 31 | 191 | 8.0 | 9.7 | 0.00 | 0.00 | 0.00 | 22 | 1012.1 |
| 20260503202633 | 30 | 225 | 6.4 | 8.0 | 0.00 | 0.00 | 0.00 | 22 | 1012.1 |
| 20260503202131 | 30 | 224 | 6.4 | 8.0 | 0.00 | 0.00 | 0.00 | 23 | 1012.0 |
| 20260503201629 | 30 | 195 | 11.3 | 14.5 | 0.00 | 0.00 | 0.00 | 22 | 1012.5 |
| 20260503201125 | 30 | 197 | 11.3 | 16.1 | 0.00 | 0.00 | 0.00 | 22 | 1012.2 |
| 20260503200622 | 30 | 243 | 8.0 | 9.7 | 0.00 | 0.00 | 0.00 | 22 | 1012.6 |
| 20260503200118 | 30 | 260 | 11.3 | 12.9 | 0.00 | 0.00 | 0.00 | 19 | 1012.6 |
| 20260503195615 | 30 | 236 | 8.0 | 11.3 | 0.00 | 0.00 | 0.00 | 20 | 1012.8 |
| 20260503195112 | 30 | 224 | 1.6 | 3.2 | 0.00 | 0.00 | 0.00 | 20 | 1012.7 |
| 20260503194609 | 30 | 218 | 6.4 | 12.9 | 0.00 | 0.00 | 0.00 | 20 | 1012.8 |
| 20260503194104 | 30 | 246 | 6.4 | 8.0 | 0.00 | 0.00 | 0.00 | 20 | 1012.7 |
| 20260503193601 | 30 | 202 | 8.0 | 14.5 | 0.00 | 0.00 | 0.00 | 20 | 1012.9 |
| 20260503193056 | 30 | 169 | 11.3 | 16.1 | 0.00 | 0.00 | 0.00 | 20 | 1013.0 |
| 20260503192553 | 30 | 184 | 8.0 | 9.7 | 0.00 | 0.00 | 0.00 | 20 | 1013.1 |
| 20260503192049 | 30 | 332 | 9.7 | 16.1 | 0.00 | 0.00 | 0.00 | 21 | 1013.0 |
| 20260503191545 | 30 | 245 | 6.4 | 8.0 | 0.00 | 0.00 | 0.00 | 21 | 1013.0 |
| 20260503191042 | 30 | 339 | 9.7 | 14.5 | 0.00 | 0.00 | 0.00 | 21 | 1013.0 |
| 20260503190539 | 30 | 185 | 3.2 | 3.2 | 0.00 | 0.00 | 0.00 | 22 | 1013.1 |
| 20260503190036 | 30 | 232 | 11.3 | 14.5 | 0.00 | 0.00 | 0.00 | 19 | 1013.3 |
| 20260503185532 | 30 | 196 | 8.0 | 12.9 | 0.00 | 0.00 | 0.00 | 21 | 1013.5 |
| 20260503185026 | 29 | 163 | 8.0 | 9.7 | 0.00 | 0.00 | 0.00 | 21 | 1013.5 |
| 20260503184523 | 29 | 316 | 6.4 | 9.7 | 0.00 | 0.00 | 0.00 | 21 | 1013.6 |
| 20260503184020 | 29 | 222 | 4.8 | 4.8 | 0.00 | 0.00 | 0.00 | 20 | 1013.5 |
| 20260503183516 | 29 | 142 | 9.7 | 12.9 | 0.00 | 0.00 | 0.00 | 22 | 1013.7 |
| 20260503183013 | 29 | 174 | 6.4 | 9.7 | 0.00 | 0.00 | 0.00 | 24 | 1013.8 |
| 20260503182512 | 29 | 145 | 6.4 | 11.3 | 0.00 | 0.00 | 0.00 | 23 | 1013.9 |
| 20260503182009 | 28 | 272 | 11.3 | 16.1 | 0.00 | 0.00 | 0.00 | 22 | 1013.8 |
| 20260503181507 | 28 | 218 | 9.7 | 12.9 | 0.00 | 0.00 | 0.00 | 24 | 1014.1 |
| 20260503181002 | 28 | 212 | 6.4 | 9.7 | 0.00 | 0.00 | 0.00 | 23 | 1014.2 |
| 20260503180500 | 28 | 227 | 8.0 | 11.3 | 0.00 | 0.00 | 0.00 | 20 | 1014.5 |
| 20260503175957 | 28 | 341 | 9.7 | 12.9 | 0.00 | 0.00 | 0.00 | 22 | 1014.2 |
| 20260503175455 | 28 | 320 | 8.0 | 12.9 | 0.00 | 0.00 | 0.00 | 20 | 1014.8 |
| 20260503174951 | 28 | 142 | 8.0 | 11.3 | 0.00 | 0.00 | 0.00 | 22 | 1015.0 |
| 20260503174449 | 28 | 306 | 4.8 | 4.8 | 0.00 | 0.00 | 0.00 | 24 | 1014.9 |
| 20260503173944 | 28 | 272 | 6.4 | 12.9 | 0.00 | 0.00 | 0.00 | 23 | 1014.9 |
| 20260503173440 | 28 | 120 | 4.8 | 8.0 | 0.00 | 0.00 | 0.00 | 26 | 1015.0 |
| 20260503172937 | 28 | 204 | 8.0 | 11.3 | 0.00 | 0.00 | 0.00 | 28 | 1015.2 |
| 20260503172434 | 28 | 99 | 8.0 | 12.9 | 0.00 | 0.00 | 0.00 | 29 | 1015.0 |
| 20260503171931 | 28 | 212 | 9.7 | 14.5 | 0.00 | 0.00 | 0.00 | 29 | 1015.3 |
| 20260503171427 | 27 | 174 | 3.2 | 3.2 | 0.00 | 0.00 | 0.00 | 29 | 1015.2 |
| 20260503170925 | 27 | 193 | 6.4 | 8.0 | 0.00 | 0.00 | 0.00 | 30 | 1015.3 |
| 20260503170421 | 27 | 130 | 6.4 | 11.3 | 0.00 | 0.00 | 0.00 | 30 | 1015.3 |
| 20260503150814 | 18 | 177 | 8.0 | 11.3 | 0.00 | 0.00 | 0.00 | 57 | 1016.6 |
| 20260503150309 | 18 | 230 | 6.4 | 8.0 | 0.00 | 0.00 | 0.00 | 57 | 1016.6 |
| 20260503140234 | 14 | 174 | 3.2 | 4.8 | 0.00 | 0.00 | 0.00 | 69 | 1017.1 |
| 20260503131203 | 10 | 139 | 3.2 | 4.8 | 0.00 | 0.00 | 0.00 | 77 | 1017.2 |
| 20260503130701 | 10 | 190 | 3.2 | 3.2 | 0.00 | 0.00 | 0.00 | 78 | 1017.4 |
| 20260503130158 | 9 | 137 | 3.2 | 4.8 | 0.00 | 0.00 | 0.00 | 79 | 1017.3 |
| 20260503120124 | 6 | 143 | 0.0 | 0.0 | 0.00 | 0.00 | 0.00 | 85 | 1017.0 |
| 20260503110551 | 7 | 136 | 0.0 | 0.0 | 0.00 | 0.00 | 0.00 | 84 | 1017.3 |
| 20260503090438 | 9 | 147 | 0.0 | 0.0 | 0.00 | 0.00 | 0.00 | 73 | 1018.4 |
| 20260503081404 | 10 | 148 | 0.0 | 0.0 | 0.00 | 0.00 | 0.00 | 67 | 1018.6 |
| 20260503080902 | 11 | 172 | 0.0 | 0.0 | 0.00 | 0.00 | 0.00 | 66 | 1018.5 |
| 20260503080358 | 11 | 163 | 0.0 | 1.6 | 0.00 | 0.00 | 0.00 | 65 | 1018.7 |
| 20260503072835 | 10 | 202 | 0.0 | 0.0 | 0.00 | 0.00 | 0.00 | 65 | 1018.8 |
| 20260503072332 | 10 | 170 | 0.0 | 0.0 | 0.00 | 0.00 | 0.00 | 65 | 1019.0 |
| 20260503071828 | 10 | 135 | 0.0 | 0.0 | 0.00 | 0.00 | 0.00 | 66 | 1019.1 |
| 20260503071325 | 10 | 136 | 0.0 | 0.0 | 0.00 | 0.00 | 0.00 | 66 | 1019.1 |
| 20260503070821 | 10 | 135 | 0.0 | 1.6 | 0.00 | 0.00 | 0.00 | 65 | 1019.0 |
| 20260503070320 | 10 | 135 | 0.0 | 0.0 | 0.00 | 0.00 | 0.00 | 65 | 1019.1 |
| 20260503060238 | 9 | 132 | 0.0 | 0.0 | 0.00 | 0.00 | 0.00 | 63 | 1019.8 |